• Join FlightAware (Why Join?)
  • Login
  • US Flag 
11:39PM EST


 

Airport Tracker/Info


-or-


 

Live Flight TrackerFlight Track Log ✈ FLG4222 ✈ 26-Sep-2013 ✈ KBGM - KDTW

Flight Track Log - Related Links

Times and Time Zones

All times are in EDT time to prevent confusion due to time zone crossing. See the FLG4222 flight status page for this flight to view local times or setup timezone preferences in your user account.

Time Position Orientation Groundspeed Altitude Reporting Facility
EDT Latitude Longitude Course Direction KTS MPH feet Rate Location/Type
11:39AM 42.2814 -76.1717 290° West 246 283 7,400  Level New York Center
11:40AM 42.3136 -76.2864 291° West 278 320 9,400 1,983 Climbing New York Center
11:41AM 42.3431 -76.3875 292° West 298 343 11,200 1,322 Climbing Cleveland Center
11:42AM 42.3756 -76.5122 289° West 345 397 12,000 384 Climbing Cleveland Center
11:43AM 42.4147 -76.6517 291° West 362 417 12,000 290 Level New York Center
11:45AM 42.4889 -76.9267 290° West 394 453 12,900 843 Climbing Cleveland Center
11:46AM 42.5247 -77.0644 289° West 391 450 14,600 1,790 Climbing Cleveland Center
11:47AM 42.5692 -77.2311 290° West 393 452 16,600 1,632 Climbing Cleveland Center
11:48AM 42.6056 -77.3717 289° West 396 456 18,000 1,440 Climbing Cleveland Center
11:49AM 42.6447 -77.5217 290° West 392 451 19,600 1,016 Climbing Cleveland Center
11:50AM 42.6817 -77.6644 289° West 400 460 20,100 484 Climbing Cleveland Center
11:51AM 42.7039 -77.8286 280° West 443 510 20,600 484 Climbing Cleveland Center
11:52AM 42.7064 -77.9931 271° West 438 504 21,100 484 Climbing Cleveland Center
11:53AM 42.7089 -78.1603 271° West 444 511 21,600 484 Climbing Cleveland Center
11:54AM 42.7106 -78.3303 271° West 450 518 22,100 532 Climbing Cleveland Center
11:55AM 42.7119 -78.4986 271° West 448 516 22,700 581 Climbing Cleveland Center
11:56AM 42.7136 -78.7036 271° West 452 520 23,300 823 Climbing Cleveland Center
11:57AM 42.7164 -78.8717 271° West 445 512 24,400 1,016 Climbing Cleveland Center
11:58AM 42.7167 -79.0364 270° West 438 504 25,400 968 Climbing Cleveland Center
11:59AM 42.7175 -79.1981 270° West 429 494 26,400 919 Climbing Cleveland Center
12:01PM 42.7164 -79.3606 270° West 431 496 27,300 768 Climbing Cleveland Center
12:02PM 42.7161 -79.5542 270° West 428 493 28,000 336 Climbing Cleveland Center
12:03PM 42.7156 -79.7186 270° West 437 503 28,000  Level Cleveland Center
12:04PM 42.7147 -79.8917 270° West 458 527 28,000  Level Cleveland Center
12:05PM 42.7111 -80.0786 269° West 458 527 28,000  Level Cleveland Center
12:06PM 42.7108 -80.2556 270° West 463 533 28,000  Level Cleveland Center
12:07PM 42.7097 -80.4344 270° West 469 540 28,000  Level Cleveland Center
12:08PM 42.7092 -80.6139 270° West 471 542 28,000 -97 Level Cleveland Center
12:09PM 42.7083 -80.7939 270° West 476 548 27,800 -532 Descending Cleveland Center
12:10PM 42.6961 -80.9703 265° West 470 541 26,900 -968 Descending Cleveland Center
12:11PM 42.6722 -81.1792 261° West 475 547 25,800 -968 Descending Cleveland Center
12:12PM 42.6536 -81.3492 262° West 455 524 24,900 -919 Descending Cleveland Center
12:13PM 42.6364 -81.4958 261° West 400 460 23,900 -1,258 Descending Cleveland Center
12:14PM 42.6206 -81.6378 261° West 382 440 22,300 -1,500 Descending Cleveland Center
12:15PM 42.6044 -81.7758 261° West 371 427 20,800 -1,536 Descending Cleveland Center
12:16PM 42.5853 -81.9256 260° West 359 413 19,100 -1,440 Descending Cleveland Center
12:17PM 42.5692 -82.0536 260° West 349 402 17,800 -1,355 Descending Cleveland Center
12:18PM 42.5550 -82.1764 261° West 335 386 16,300 -1,486 Descending Cleveland Center
12:19PM 42.5428 -82.2822 261° West 327 376 15,100 -1,452 Descending Cleveland Center
12:19PM 42.5389 -82.2983 252° West 330 380 14,800 -1,527 Descending Cleveland Center
12:20PM 42.5289 -82.3936 262° West 322 371 13,700 -1,452 Descending Cleveland Center
12:20PM 42.5247 -82.4172 257° West 324 373 13,300 -1,433 Descending Cleveland Center
12:21PM 42.5114 -82.5244 260° West 319 367 12,100 -1,258 Descending Cleveland Center
12:21PM 42.5086 -82.5342 249° West 320 368 12,000 -107 Descending Cleveland Center
12:22PM 42.4794 -82.6219 246° West 314 361 12,000  Level Cleveland Center
12:22PM 42.4647 -82.6619 243° Southwest 312 359 12,000 -885 Level Cleveland Center
12:23PM 42.4583 -82.7408 264° West 323 372 11,100 -1,355 Descending Cleveland Center
12:23PM 42.4525 -82.7783 258° West 314 361 10,600 -1,475 Descending Cleveland Center
12:24PM 42.4458 -82.8553 263° West 302 348 9,600 -1,452 Descending Cleveland Center
12:24PM 42.4406 -82.8914 259° West 306 352 9,100 -1,522 Descending Cleveland Center
12:25PM 42.4328 -82.9750 263° West 283 326 7,900 -1,452 Descending Cleveland Center
12:25PM 42.4300 -82.9964 260° West 291 335 7,600 -871 Descending Cleveland Center
12:26PM 42.4233 -83.0728 263° West 253 291 7,000 -774 Descending Cleveland Center
12:26PM 42.4203 -83.0883 255° West 260 299 6,800 -1,742 Descending Cleveland Center
12:27PM 42.3958 -83.1594 245° Southwest 253 291 5,200 -1,619 Descending Cleveland Center
12:27PM 42.3889 -83.1708 230° Southwest 259 298 5,100 -1,084 Descending Cleveland Center
12:28PM 42.3458 -83.2425 231° Southwest 215 247 3,700 -1,389 Descending Cleveland Center
12:29PM 42.3169 -83.2614 206° Southwest 179 206 2,900 -1,161 Descending Cleveland Center
12:29PM 42.2994 -83.2717 203° Southwest 189 217 2,500 -806 Descending Cleveland Center
12:30PM 42.2744 -83.2950 215° Southwest 156 180 2,000 -774 Descending Cleveland Center
12:31PM 42.2617 -83.3011 199° South 162 186 1,700 -873 Descending Cleveland Center
12:31PM 42.2389 -83.3211 213° Southwest 153 176 1,200 -871 Descending Cleveland Center
12:32PM 42.2194 -83.3314 201° Southwest 156 180 800 -774 Descending Cleveland Center
12:34PM 42.2000 -83.3500 236° Southwest  Level FlightAware Approximate
12:41PM 42.2124 -83.3534 236° Southwest  Level Estimated